• In Uzbekistan
  • List of Countries
  • For 7 days
  • Water Temperature
  • Satellite Maps
  • Weather Map
  • Weather Widgets
  • user-avatar
    Login

    Hourly Weather Dzhalalabad

    Today, 20 September, Thursday

    Time Temperature Precipitation Wind Pressure Humidity
    00:00 +24°C° 0 mm 2 mps 695 mmHg 30%
    01:00 +23°C° 0 mm 2 mps 694 mmHg 31%
    02:00 +21°C° 0 mm 2 mps 694 mmHg 32%
    03:00 +21°C° 0 mm 2 mps 694 mmHg 33%
    04:00 +21°C° 0 mm 2 mps 694 mmHg 33%
    05:00 +21°C° 0 mm 3 mps 693 mmHg 32%
    06:00 +23°C° 0 mm 2 mps 693 mmHg 31%
    07:00 +24°C° 0 mm 2 mps 694 mmHg 31%
    08:00 +26°C° 0 mm 2 mps 694 mmHg 30%
    09:00 +27°C° 0 mm 2 mps 694 mmHg 27%
    10:00 +28°C° 0 mm 2 mps 694 mmHg 25%
    11:00 +29°C° 0 mm 3 mps 694 mmHg 23%
    12:00 +30°C° 0 mm 3 mps 693 mmHg 23%
    13:00 +30°C° 0 mm 3 mps 693 mmHg 22%
    14:00 +30°C° 0 mm 3 mps 693 mmHg 22%
    15:00 +29°C° 0 mm 3 mps 693 mmHg 24%
    16:00 +29°C° 0 mm 3 mps 693 mmHg 25%
    17:00 +28°C° 0 mm 3 mps 693 mmHg 27%
    18:00 +26°C° 0.1 mm 2 mps 693 mmHg 29%
    19:00 +25°C° 0.1 mm 2 mps 693 mmHg 32%
    20:00 +24°C° 0.1 mm 2 mps 694 mmHg 34%
    21:00 +23°C° 0 mm 2 mps 694 mmHg 37%
    22:00 +21°C° 0 mm 2 mps 694 mmHg 39%
    23:00 +21°C° 0 mm 2 mps 694 mmHg 41%

    Tomorrow, 21 September, Friday

    Time Temperature Precipitation Wind Pressure Humidity
    00:00 +20°C° 0 mm 2 mps 694 mmHg 43%
    01:00 +20°C° 0 mm 2 mps 694 mmHg 45%
    02:00 +19°C° 0 mm 2 mps 694 mmHg 47%
    03:00 +19°C° 0 mm 2 mps 694 mmHg 48%
    04:00 +18°C° 0 mm 2 mps 694 mmHg 50%
    05:00 +19°C° 0 mm 1 mps 694 mmHg 51%
    06:00 +20°C° 0 mm 1 mps 695 mmHg 49%
    07:00 +21°C° 0 mm 1 mps 695 mmHg 46%
    08:00 +22°C° 0 mm 1 mps 695 mmHg 44%
    09:00 +23°C° 0 mm 1 mps 695 mmHg 42%
    10:00 +24°C° 0 mm 2 mps 695 mmHg 39%
    11:00 +25°C° 0 mm 2 mps 695 mmHg 37%
    12:00 +25°C° 0 mm 2 mps 695 mmHg 36%
    13:00 +26°C° 0 mm 2 mps 695 mmHg 34%
    14:00 +27°C° 0 mm 2 mps 695 mmHg 33%
    15:00 +27°C° 0 mm 2 mps 695 mmHg 34%
    16:00 +26°C° 0 mm 2 mps 695 mmHg 35%
    17:00 +26°C° 0 mm 2 mps 695 mmHg 36%
    18:00 +24°C° 0 mm 2 mps 695 mmHg 39%
    19:00 +23°C° 0 mm 2 mps 695 mmHg 43%
    20:00 +20°C° 0 mm 2 mps 696 mmHg 47%
    21:00 +20°C° 0 mm 2 mps 695 mmHg 49%
    22:00 +20°C° 0 mm 1 mps 695 mmHg 50%
    23:00 +19°C° 0 mm 1 mps 695 mmHg 52%

    Day after tomorrow, 22 September, Saturday

    Time Temperature Precipitation Wind Pressure Humidity
    00:00 +19°C° 0 mm 1 mps 695 mmHg 53%
    01:00 +19°C° 0 mm 1 mps 695 mmHg 54%
    02:00 +18°C° 0 mm 1 mps 695 mmHg 55%
    03:00 +18°C° 0 mm 1 mps 695 mmHg 55%
    04:00 +16°C° 0 mm 1 mps 695 mmHg 55%
    05:00 +16°C° 0 mm 1 mps 695 mmHg 55%
    06:00 +18°C° 0 mm 1 mps 695 mmHg 50%
    07:00 +20°C° 0 mm 1 mps 695 mmHg 45%
    08:00 +21°C° 0 mm 1 mps 696 mmHg 41%
    09:00 +23°C° 0 mm 1 mps 695 mmHg 37%
    10:00 +24°C° 0 mm 1 mps 695 mmHg 33%
    11:00 +26°C° 0 mm 2 mps 695 mmHg 30%
    12:00 +26°C° 0 mm 2 mps 694 mmHg 29%
    13:00 +27°C° 0 mm 2 mps 694 mmHg 28%
    14:00 +28°C° 0 mm 3 mps 693 mmHg 27%
    15:00 +27°C° 0 mm 2 mps 693 mmHg 29%
    16:00 +27°C° 0 mm 2 mps 693 mmHg 30%
    17:00 +26°C° 0 mm 2 mps 693 mmHg 31%
    18:00 +25°C° 0 mm 2 mps 694 mmHg 35%
    19:00 +23°C° 0 mm 2 mps 694 mmHg 39%
    20:00 +20°C° 0 mm 2 mps 694 mmHg 43%
    21:00 +20°C° 0 mm 2 mps 694 mmHg 45%
    22:00 +19°C° 0 mm 2 mps 694 mmHg 47%
    23:00 +20°C° 0 mm 1 mps 694 mmHg 49%

    23 September, Sunday

    Time Temperature Precipitation Wind Pressure Humidity
    00:00 +19°C° 0 mm 1 mps 694 mmHg 50%
    01:00 +19°C° 0 mm 1 mps 694 mmHg 50%
    02:00 +18°C° 0 mm 1 mps 694 mmHg 51%
    03:00 +18°C° 0 mm 1 mps 694 mmHg 52%
    04:00 +18°C° 0 mm 1 mps 694 mmHg 52%
    05:00 +18°C° 0 mm 1 mps 694 mmHg 53%
    06:00 +19°C° 0 mm 1 mps 694 mmHg 48%
    07:00 +20°C° 0 mm 1 mps 694 mmHg 44%
    08:00 +22°C° 0 mm 1 mps 695 mmHg 40%
    09:00 +23°C° 0 mm 1 mps 694 mmHg 37%
    10:00 +24°C° 0 mm 2 mps 694 mmHg 34%
    11:00 +26°C° 0 mm 2 mps 694 mmHg 30%
    12:00 +26°C° 0 mm 2 mps 693 mmHg 30%
    13:00 +27°C° 0 mm 3 mps 693 mmHg 30%
    14:00 +27°C° 0 mm 3 mps 692 mmHg 29%
    15:00 +27°C° 0.1 mm 3 mps 692 mmHg 31%
    16:00 +26°C° 0.1 mm 3 mps 692 mmHg 33%
    17:00 +26°C° 0.1 mm 3 mps 693 mmHg 35%
    18:00 +24°C° 0.2 mm 3 mps 693 mmHg 39%
    19:00 +21°C° 0.2 mm 4 mps 693 mmHg 44%
    20:00 +20°C° 0.2 mm 4 mps 694 mmHg 49%
    21:00 +19°C° 0.2 mm 3 mps 694 mmHg 49%
    22:00 +19°C° 0.2 mm 3 mps 694 mmHg 50%
    23:00 +18°C° 0.2 mm 2 mps 694 mmHg 51%

    24 September, Monday

    Time Temperature Precipitation Wind Pressure Humidity
    00:00 +18°C° 0.1 mm 2 mps 694 mmHg 53%
    01:00 +17°C° 0.1 mm 2 mps 694 mmHg 54%
    02:00 +17°C° 0.1 mm 2 mps 695 mmHg 55%
    03:00 +16°C° 0 mm 2 mps 695 mmHg 56%
    04:00 +16°C° 0 mm 2 mps 695 mmHg 58%
    05:00 +15°C° 0 mm 2 mps 695 mmHg 59%
    06:00 +17°C° 0 mm 2 mps 695 mmHg 54%
    07:00 +19°C° 0 mm 1 mps 695 mmHg 50%
    08:00 +20°C° 0 mm 1 mps 695 mmHg 45%
    09:00 +22°C° 0 mm 1 mps 694 mmHg 41%
    10:00 +23°C° 0 mm 2 mps 694 mmHg 37%
    11:00 +25°C° 0 mm 2 mps 694 mmHg 33%
    12:00 +25°C° 0 mm 2 mps 694 mmHg 32%
    13:00 +26°C° 0 mm 2 mps 693 mmHg 31%
    14:00 +26°C° 0 mm 3 mps 693 mmHg 30%
    15:00 +26°C° 0.1 mm 2 mps 693 mmHg 31%
    16:00 +26°C° 0.1 mm 2 mps 694 mmHg 32%
    17:00 +26°C° 0.1 mm 1 mps 694 mmHg 33%
    18:00 +24°C° 0 mm 2 mps 694 mmHg 36%
    19:00 +21°C° 0 mm 2 mps 694 mmHg 39%
    20:00 +19°C° 0 mm 2 mps 695 mmHg 42%
    21:00 +19°C° 0 mm 2 mps 695 mmHg 43%
    22:00 +18°C° 0 mm 2 mps 695 mmHg 44%
    23:00 +18°C° 0 mm 2 mps 694 mmHg 45%

    25 September, Tuesday

    Time Temperature Precipitation Wind Pressure Humidity
    00:00 +18°C° 0 mm 2 mps 694 mmHg 45%
    01:00 +17°C° 0 mm 2 mps 694 mmHg 46%
    02:00 +17°C° 0 mm 2 mps 694 mmHg 46%
    03:00 +17°C° 0 mm 2 mps 694 mmHg 46%
    04:00 +16°C° 0 mm 2 mps 694 mmHg 46%
    05:00 +16°C° 0 mm 2 mps 694 mmHg 46%
    06:00 +19°C° 0 mm 1 mps 694 mmHg 41%
    07:00 +20°C° 0 mm 1 mps 695 mmHg 37%
    08:00 +22°C° 0 mm 1 mps 695 mmHg 33%
    09:00 +23°C° 0 mm 1 mps 695 mmHg 29%
    10:00 +25°C° 0 mm 2 mps 695 mmHg 25%
    11:00 +27°C° 0 mm 2 mps 695 mmHg 20%
    12:00 +28°C° 0 mm 2 mps 695 mmHg 20%
    13:00 +28°C° 0 mm 2 mps 694 mmHg 19%
    14:00 +29°C° 0 mm 2 mps 694 mmHg 19%
    15:00 +28°C° 0 mm 2 mps 694 mmHg 20%
    16:00 +28°C° 0 mm 1 mps 694 mmHg 22%
    17:00 +28°C° 0 mm 1 mps 694 mmHg 23%
    18:00 +26°C° 0 mm 1 mps 694 mmHg 25%
    19:00 +24°C° 0 mm 2 mps 694 mmHg 27%
    20:00 +21°C° 0 mm 2 mps 694 mmHg 29%
    21:00 +20°C° 0 mm 2 mps 694 mmHg 29%
    22:00 +20°C° 0 mm 2 mps 694 mmHg 30%
    23:00 +19°C° 0 mm 2 mps 694 mmHg 30%
    Show more